Fort Leonard Wood, MO

5:44 AM CDT on July 25, 2017 (GMT -0500)
Waynesville Regional At Forney Field

Weather History for KTBN - January, 2014

Change the Weather History Date:

Tuesday, January 21, 2014

  Actual Average Record
Temperature  
Mean Temperature 22 °F -  
Max Temperature 32 °F 39 °F 66 °F (1999)
Min Temperature 11 °F 25 °F 7 °F (2011)
Degree Days  
Heating Degree Days 44    
Moisture  
Dew Point 6 °F    
Average Humidity 63    
Maximum Humidity 79    
Minimum Humidity 33    
Precipitation  
Precipitation 0.00 in - - ()
Sea Level Pressure  
Sea Level Pressure 30.27 in    
Wind  
Wind Speed 15 mph (NNW)    
Max Wind Speed 23 mph    
Max Gust Speed 40 mph    
Visibility 10 miles    
Events Snow    
Averages and records for this station are not official NWS values.
T = Trace of Precipitation, MM = Missing Value Source: NWS Daily Summary

Daily Weather History Graph

Daily Weather History Graph

Search for Another Location

Airport or City:

Trip Planner

Search our weather history database for the weather conditions in past years. The results will help you decide how hot, cold, wet, or windy it might be!

Date:

Astronomy

Jan. 21, 2014 Rise Set
Actual Time 7:20 AM CST 5:20 PM CST
Civil Twilight 6:51 AM CST 5:48 PM CST
Nautical Twilight 6:19 AM CST 6:20 PM CST
Astronomical Twilight 5:48 AM CST 6:51 PM CST
Moon 10:46 PM CST (1/21) 9:56 AM CST (1/21)
Length of Visible Light 10h 56m
Length of Day
10h 00m
Waning Gibbous, 74% of the Moon is Illuminated
Jan 21
Waning Gibbous
Jan 23
Last Quarter
Jan 30
New
Feb 6
First Quarter
Feb 14
Full

Hourly Weather History & Observations

Time (CST) Temp. Windchill Dew Point Humidity Pressure Visibility Wind Dir Wind Speed Gust Speed Precip Events Conditions
12:58 AM 32.7 °F 21.1 °F 21.9 °F 64% 30.06 in 10.0 mi NW 19.6 mph 31.1 mph N/A   Overcast
1:03 AM 32.0 °F 19.2 °F 23.0 °F 69% 30.04 in 10.0 mi NW 23.0 mph 32.2 mph N/A   Overcast
1:07 AM 32.0 °F 19.2 °F 23.0 °F 69% 30.04 in 10.0 mi NW 23.0 mph 32.2 mph N/A   Overcast
1:58 AM 28.0 °F 16.1 °F 19.9 °F 72% 30.12 in 10.0 mi NW 16.1 mph 40.3 mph 0.00 in   Overcast
2:17 AM 26.6 °F 13.4 °F 19.4 °F 74% 30.11 in 10.0 mi NNW 18.4 mph 33.4 mph N/A   Overcast
2:42 AM 24.8 °F 11.9 °F 17.6 °F 74% 30.13 in 10.0 mi NNW 16.1 mph 26.5 mph N/A   Overcast
2:58 AM 24.6 °F 9.7 °F 16.9 °F 72% 30.17 in 10.0 mi NW 21.9 mph 31.1 mph 0.00 in   Overcast
3:58 AM 21.6 °F 7.8 °F 14.5 °F 74% 30.22 in 10.0 mi NW 16.1 mph 31.1 mph 0.00 in Snow Light Snow
4:58 AM 18.1 °F 4.4 °F 10.2 °F 71% 30.26 in 10.0 mi NNW 13.8 mph 31.1 mph 0.00 in   Overcast
5:05 AM 17.6 °F 3.2 °F 10.4 °F 73% 30.23 in 10.0 mi NNW 15.0 mph 21.9 mph N/A   Overcast
5:07 AM 17.6 °F 4.3 °F 10.4 °F 73% 30.23 in 10.0 mi NNW 12.7 mph 21.9 mph N/A   Overcast
5:16 AM 17.6 °F 5.0 °F 10.4 °F 73% 30.23 in 10.0 mi NW 11.5 mph 26.5 mph N/A   Overcast
5:24 AM 17.6 °F 5.0 °F 10.4 °F 73% 30.24 in 10.0 mi NW 11.5 mph 21.9 mph N/A Snow Light Snow
5:58 AM 16.3 °F 0.1 °F 9.1 °F 73% 30.30 in 10.0 mi NNW 18.4 mph 26.5 mph 0.00 in Snow Light Snow
6:21 AM 15.8 °F -0.2 °F 6.8 °F 68% 30.28 in 10.0 mi NNW 17.3 mph 26.5 mph N/A   Overcast
6:44 AM 14.0 °F -0.8 °F 5.0 °F 67% 30.29 in 10.0 mi NNW 13.8 mph 24.2 mph N/A Snow Light Snow
6:58 AM 14.4 °F 0.9 °F 8.4 °F 77% 30.34 in 8.0 mi NW 11.5 mph - 0.00 in Snow Light Snow
7:23 AM 14.0 °F -2.5 °F 8.6 °F 79% 30.30 in 7.0 mi NW 17.3 mph 20.7 mph N/A Snow Light Snow
7:31 AM 14.0 °F -0.2 °F 6.8 °F 73% 30.30 in 10.0 mi NNW 12.7 mph 20.7 mph N/A   Overcast
7:32 AM 14.0 °F -0.8 °F 6.8 °F 73% 30.30 in 10.0 mi NNW 13.8 mph 20.7 mph N/A   Light Freezing Rain
7:36 AM 14.0 °F -1.4 °F 6.8 °F 73% 30.31 in 10.0 mi NW 15.0 mph - N/A   Overcast
7:47 AM 12.2 °F -5.3 °F 5.0 °F 73% 30.31 in 10.0 mi NNW 18.4 mph 27.6 mph N/A   Light Freezing Rain
7:57 AM 12.2 °F -4.3 °F 5.0 °F 73% 30.31 in 10.0 mi NW 16.1 mph 23.0 mph N/A   Overcast
7:58 AM 12.2 °F -4.8 °F 5.0 °F 73% 30.36 in 10.0 mi NNW 17.3 mph 23.0 mph 0.00 in   Overcast
8:03 AM 12.2 °F -3.7 °F 5.0 °F 73% 30.31 in 10.0 mi NNW 15.0 mph 23.0 mph N/A   Overcast
8:08 AM 12.2 °F -3.7 °F 5.0 °F 73% 30.32 in 10.0 mi North 15.0 mph 20.7 mph N/A   Overcast
8:12 AM 12.2 °F -3.7 °F 5.0 °F 73% 30.32 in 10.0 mi NNW 15.0 mph 20.7 mph N/A Snow Light Snow
8:26 AM 12.2 °F -4.3 °F 3.2 °F 67% 30.33 in 10.0 mi NNW 16.1 mph 26.5 mph N/A   Mostly Cloudy
8:36 AM 12.2 °F -3.7 °F 3.2 °F 67% 30.33 in 10.0 mi NNW 15.0 mph 23.0 mph N/A   Mostly Cloudy
8:46 AM 12.2 °F -5.3 °F 3.2 °F 67% 30.34 in 10.0 mi NNW 18.4 mph 25.3 mph N/A   Scattered Clouds
8:58 AM 11.5 °F -2.7 °F 3.4 °F 70% 30.39 in 10.0 mi NNW 11.5 mph 25.3 mph 0.00 in   Scattered Clouds
9:48 AM 12.2 °F -3.7 °F 3.2 °F 67% 30.35 in 10.0 mi North 15.0 mph 25.3 mph N/A   Mostly Cloudy
9:53 AM 12.2 °F -2.5 °F 3.2 °F 67% 30.35 in 10.0 mi North 12.7 mph - N/A   Scattered Clouds
9:58 AM 12.0 °F -4.0 °F 2.7 °F 66% 30.41 in 10.0 mi North 15.0 mph 20.7 mph N/A   Scattered Clouds
10:58 AM 14.9 °F 1.6 °F 2.7 °F 58% 30.41 in 10.0 mi NNW 11.5 mph 19.6 mph N/A   Partly Cloudy
11:58 AM 16.5 °F 2.4 °F -1.1 °F 46% 30.38 in 10.0 mi NNW 13.8 mph 19.6 mph N/A   Clear
12:58 PM 18.9 °F 12.1 °F -1.7 °F 41% 30.36 in 10.0 mi Variable 4.6 mph 18.4 mph N/A   Clear
1:58 PM 19.0 °F 9.0 °F -1.7 °F 40% 30.32 in 10.0 mi North 8.1 mph - N/A   Clear
2:58 PM 20.1 °F 11.3 °F -3.6 °F 35% 30.32 in 10.0 mi Variable 6.9 mph - N/A   Clear
3:58 PM 20.3 °F 11.5 °F -4.5 °F 33% 30.30 in 10.0 mi NNW 6.9 mph - N/A   Partly Cloudy
4:58 PM 19.4 °F - -4.5 °F 35% 30.28 in 10.0 mi WNW 2.3 mph - N/A   Clear
5:58 PM 17.6 °F - -3.1 °F 40% 30.29 in 10.0 mi NW 2.3 mph - N/A   Mostly Cloudy
6:58 PM 17.8 °F - -0.8 °F 44% 30.28 in 10.0 mi Calm Calm - N/A   Overcast
7:58 PM 18.1 °F 11.3 °F 5.2 °F 57% 30.25 in 10.0 mi SE 4.6 mph - N/A   Overcast
8:58 PM 17.2 °F 11.9 °F 1.6 °F 50% 30.23 in 10.0 mi SSE 3.5 mph - N/A   Overcast
9:58 PM 18.3 °F - 0.5 °F 46% 30.24 in 10.0 mi SSE 2.3 mph - N/A   Overcast
10:58 PM 18.9 °F - -0.9 °F 42% 30.24 in 10.0 mi South 2.3 mph - N/A   Overcast
11:58 PM 19.2 °F 14.1 °F 1.0 °F 45% 30.23 in 10.0 mi SSE 3.5 mph - N/A   Overcast